Location: Sungai Kamana Besar
(2.6333°N, 113.4333°E)
Time: 11:57:15
(UTC+00:00)

ARIANE 5 R/B - Visible Passes

Search period start: 26 September 2022 00:00
Search period end: 06 October 2022 00:00
Orbit: 269 x 32098 km, 4.7° (Epoch: 25 September)

Date Brightness Start Highest point End Pass type
(mag) Time Alt. Az. Time Alt. Az. Time Alt. Az.
26 Sep 6.2 18:52:08 67° SW 19:02:37 77° S 03:21:20 10° E visible
28 Sep 6.3 17:42:49 69° SE 17:42:49 69° SE 02:05:10 10° E visible
29 Sep 3.6 11:54:38 10° W 11:54:49 12° W 11:54:49 12° W visible
29 Sep 5.2 21:51:35 10° W 23:42:50 57° WSW 06:28:54 10° E visible
30 Sep 6.7 16:33:23 43° ESE 16:33:23 43° ESE 00:45:39 10° E visible
01 Oct 0.3 10:39:49 10° W 10:43:20 75° S 10:45:10 10° E visible
01 Oct 5.9 20:39:40 25° W 22:30:04 76° WSW 05:15:47 10° E visible
02 Oct 7.2 15:23:49 21° E 15:23:49 21° E 23:18:46 10° E visible
03 Oct 6.4 19:30:01 50° WSW 20:08:17 80° S 04:01:51 10° E visible
04 Oct 10.8 19:18:34 10° E 20:32:11 13° E 21:22:55 10° E visible
